Home > Weather > Faro > Past weeks

Flag for Portugal Weather for the Past 2 Weeks in Faro, Portugal

Now
63 °F

Passing clouds.


Feels Like: 63 °F
Forecast: 57 / 65 °F
Wind: 7 mph from Southwest

Location: Faro / Aeroporto

Current Time: May 5, 2016 at 11:34:49 PM

Latest Report: May 5, 2016 at 11:00 PM


Visibility: N/A

Pressure: 29.86 "Hg

Humidity: 94%

Dew Point: 61 °F

Location of FaroLocation

Historic Weather in Faro — Graph

°F

Faro Temperature Yesterday

Maximum temperature yesterday: 72 °F (at 11:00 AM)
Minimum temperature yesterday: 64 °F (at 9:00 AM)
Average temperature yesterday: 67 °F

High & Low Weather Summary for the Past Weeks

 TemperatureHumidityPressure
High81 °F (May 2, 5:30 PM)100% (Apr 21, 5:30 AM)30.18 "Hg (Apr 21, 5:30 AM)
Low54 °F (Apr 21, 5:30 AM)15% (May 2, 5:00 PM)29.80 "Hg (May 5, 3:30 PM)
Average65 °F64%29.99 "Hg
* Reported Apr 20 10:00 PM — May 5 10:30 PM, Faro, Weather by CustomWeather, © 2016

Note: Actual official high and low records may vary slightly from our data, if they occured in-between our weather recording intervals... More about our weather records

Advertising

Faro Weather History for the Previous 24 Hours

Scroll right to see more
 ConditionsComfort  
Time TempWeatherWind HumidityBarometerVisibility
10:30 PM
Thu, May 5
63 °FPassing clouds.9 mph94%29.86 "HgN/A
10:00 PM63 °FPassing clouds.12 mph94%29.83 "HgN/A
9:30 PM63 °FPassing clouds.10 mph100%29.83 "HgN/A
9:00 PM63 °FScattered clouds.7 mph94%29.83 "HgN/A
8:30 PM63 °FPassing clouds.9 mph94%29.83 "HgN/A
8:00 PM63 °FPassing clouds.9 mph94%29.80 "HgN/A
7:30 PM63 °FScattered clouds.13 mph100%29.80 "HgN/A
7:00 PM63 °FSprinkles. Broken clouds.14 mph100%29.80 "HgN/A
6:30 PM64 °FPartly sunny.9 mph94%29.80 "HgN/A
6:00 PM64 °FBroken clouds.5 mph94%29.80 "HgN/A
5:30 PM68 °FBroken clouds.3 mph88%29.80 "HgN/A
5:00 PM64 °FBroken clouds.3 mph94%29.80 "HgN/A
4:30 PM63 °FBroken clouds.5 mph100%29.80 "HgN/A
4:00 PM63 °FLight rain. Fog.6 mph94%29.80 "Hg3 mi
3:30 PM63 °FSprinkles. Partly sunny.7 mph94%29.80 "Hg5 mi
3:00 PM61 °FLight rain. Partly sunny.9 mph100%29.83 "HgN/A
2:30 PM61 °FThunderstorms. Partly sunny.10 mph100%29.83 "HgN/A
2:00 PM63 °FThunderstorms. Scattered clouds.8 mph94%29.83 "Hg1 mi
1:30 PM61 °FThunderstorms. Scattered clouds.6 mph100%29.83 "Hg3 mi
1:00 PM63 °FThunderstorms. Broken clouds.8 mph94%29.86 "Hg1 mi
12:30 PM63 °FSprinkles. Partly sunny.10 mph94%29.86 "Hg5 mi
12:00 PM66 °FRain showers. Broken clouds.12 mph73%29.83 "HgN/A
11:30 AM64 °FScattered clouds.15 mph73%29.83 "HgN/A
11:00 AM66 °FScattered clouds.16 mph68%29.83 "HgN/A
10:30 AM68 °FScattered clouds.15 mph60%29.83 "HgN/A
10:00 AM66 °FScattered clouds.14 mph56%29.83 "HgN/A
9:30 AM66 °FPassing clouds.13 mph56%29.83 "HgN/A
9:00 AM64 °FScattered clouds.10 mph56%29.83 "HgN/A
8:30 AM64 °FPassing clouds.10 mph56%29.83 "HgN/A
8:00 AM64 °FScattered clouds.14 mph52%29.83 "HgN/A
7:30 AM63 °FPassing clouds.13 mph56%29.83 "HgN/A
7:00 AM64 °FPassing clouds.14 mph56%29.83 "HgN/A
6:30 AM64 °FPassing clouds.13 mph52%29.83 "HgN/A
6:00 AM64 °FPassing clouds.10 mph56%29.83 "HgN/A
5:30 AM64 °FPassing clouds.9 mph64%29.83 "HgN/A
5:00 AM64 °FPassing clouds.7 mph68%29.86 "HgN/A
3:00 AM64 °FClear.7 mph73%29.89 "Hg10 mi
2:30 AM64 °FClear.6 mph73%29.89 "Hg10 mi
2:00 AM63 °FClear.8 mph83%29.89 "Hg10 mi
1:30 AM64 °FClear.8 mph78%29.89 "Hg10 mi
1:00 AM63 °FClear.6 mph83%29.92 "Hg10 mi
12:30 AM64 °FClear.7 mph78%29.92 "Hg10 mi
12:00 AM64 °FClear.6 mph83%29.92 "Hg10 mi
11:30 PM
Wed, May 4
64 °FClear.9 mph83%29.92 "Hg10 mi
11:00 PM64 °FClear.8 mph78%29.92 "Hg10 mi
Weather by CustomWeather, © 2016

See weather overviewHow to use our weather pages